Location: Unspecified
(0.0000°N, 0.0000°E)
Time: 01:24:10
(UTC+00:00)

Transit 4A - Pass Details

Date: 23 November 2019
Orbit: 870 x 975 km, 66.8° (Epoch: 11 December)

Event Time Altitude Azimuth Distance (km) Brightness Sun altitude
Rises 06:07:36 0° 15° (NNE) 3,440 10.8 5.0°
Reaches altitude 10° 06:11:28 10° 41° (NE) 2,506 10.5 5.9°
Maximum altitude 06:14:13 14° 70° (ENE) 2,261 10.8 6.6°
Drops below altitude 10° 06:16:59 10° 99° (E) 2,520 12.4 7.2°
Sets 06:20:51 0° 124° (SE) 3,475 12.8 8.1°
